Tracking 19193 objects as of 24-Jun-2018
HD Live streaming from Space Station
objects crossing your sky now

FENGYUN 1C DEB

Track FENGYUN 1C DEB now!
10-day predictions


NORAD ID: 32411
Int'l Code: 1999-025CZX
Perigee: 785.7 km
Apogee: 972.3 km
Inclination: 98.4 °
Period: 102.4 minutes
Semi major axis: 7250 km
RCS: 0.0079 m2 (small)
Launch date: May 10, 1999
Source: People's Republic of China (PRC)
Launch site: Taiyaun Space Center, China (TSC)

Note: This is SATELLITE DEBRIS
aabbcc
Your satellite tracking list
Your tracking list is empty




NASA's NSSDC Master Catalog

Two Line Element Set (TLE):
1 32411U 99025CZX 18173.99303234 -.00000074 +00000-0 -19004-4 0  9990
2 32411 098.4149 258.7332 0128673 236.8473 122.0299 14.06350514274207
Source of the keplerian elements: AFSPC